Regional Weather Roundup
Issued by NWS Newport/Morehead, NC

Current Version | Previous Version | Graphics & Text | Print | Product List | Glossary Off
Versions: 1 2 3 4 5 6 7 8 9 10 11 12 13 14 15 16 17 18 19 20 21 22 23 24 25 26 27 28 29 30 31 32 33 34 35 36 37 38 39 40 41 42 43 44 45 46 47 48 49 50

517
ASUS42 KMHX 221513
RWRMHX
WEATHER ROUNDUP FOR EASTERN NORTH CAROLINA
NATIONAL WEATHER SERVICE NEWPORT/MOREHEAD CITY NC
1100 AM EDT MON MAY 22 2017

NOTE: "FAIR" INDICATES FEW OR NO CLOUDS BELOW 12,000 FEET
WITH NO SIGNIFICANT WEATHER AND/OR OBSTRUCTIONS TO VISIBILITY

NCZ015>017-031-032-045>047-102-103-221600-
NORTH COAST

CITY           SKY/WX    TMP DP  RH WIND       PRES   REMARKS
EDENTON        CLOUDY    77  70  77 S9        30.06F
ELIZABETH CITY PTSUNNY   77  71  82 S8        30.06F
KITTY HAWK     NOT AVBL
MANTEO         CLOUDY    75  70  86 S13       30.08S

$$

NCZ045>047-081-094-103-104-221600-
CENTRAL COAST

CITY           SKY/WX    TMP DP  RH WIND       PRES   REMARKS
FRISCO         CLOUDY    78  69  73 SE7       30.09F

$$

NCZ095-097-098-100-101-221600-
SOUTHERN COAST

CITY           SKY/WX    TMP DP  RH WIND       PRES   REMARKS
BEAUFORT       CLOUDY    80  71  74 SW12      30.07F
CEDAR ISLAND   NOT AVBL
JACKSONVILLE   PTSUNNY   79  68  69 SW14G21   30.05F
PINEY ISLAND   MOSUNNY  N/A N/A N/A SW13      30.07F
WILMINGTON     CLOUDY    80  68  66 SW9       30.06F


$$

NCZ011>013-027>030-043-044-078>080-089-090>093-098-221600-
COASTAL PLAIN

CITY           SKY/WX    TMP DP  RH WIND       PRES   REMARKS
AHOSKIE          N/A     71  69  93 SE6       30.03F
CLINTON        PTSUNNY   78  72  81 SW9       30.05F
ELIZABETHTOWN  PTSUNNY   77  70  78 SW12      30.06F
GOLDSBORO      PTSUNNY   81  73  78 SW20G25   30.00F
GREENVILLE     CLOUDY    81  70  69 SW15G22   30.04F
HAVELOCK       MOSUNNY   82  67  60 SW14      30.07F
KENANSVILLE    CLOUDY    77  70  78 SW9       30.05F
KINSTON        PTSUNNY   81  68  65 S17       30.04F
NEW BERN       CLOUDY    81  68  64 SW15G24   30.06F
RICHLANDS      CLOUDY    79  69  71 SW12      30.06S
ROCKY MOUNT    CLOUDY    76  72  87 S10G20    30.00F
WASHINGTON     MOSUNNY   77  69  76 S9        30.04F
WHITEVILLE     CLOUDY    78  70  75 S10       30.07S

$$

AMZ130-135-150-152-154-156-158-170-250-252-270-ANZ085-086-088-633-658-670-221600-
MARINE OBSERVATIONS

STATION/POSITION TIME  TEMP    WIND        PRES    WAVE   SWELL
                       AIR SEA DIR/SP/G            HT/PER HT/PER
                 (UTC) (F)     (DEG/KT/KT) (MB)    (FT/S) (FT/S)
CHESAPEAKE LIGHT NOT AVBL
64 E VA BEACH    1450   70 69  160/ 10/ 12 1019.1    5/ 7   5/ 7
DUCK             1448   74 66  180/  8/ 12 1017.7
2 E DUCK         1500      66                N/A     4/ 8
OREGON INLET     1436   74 69  160/ 10/ 13 1018.5
13E OREGON INLT  1448      65                N/A     4/ 7   3/ 7
HATTERAS CG      1448   75 74  150/  7/  9 1018.7
DIAMOND BUOY     1450   75 78  170/  6/  8 1019.1    4/ 8   3/ 8
CAPE LOOKOUT     1500   77     220/  9/ 11 1018.3
BEAUFORT LAB     1448   78 74  210/  8/ 13 1017.7
30 SE NEW RVR IN 1408   76 76  230/ 12/ 16 1018.9
30 SE NEW RVR IN 1443      76                N/A     4/ 8
27 SE WRIGHTSVLE 1408   76 75  210/ 12/ 16 1018.4
5 SE WRIGHTSVLE  1408   76 75  210/ 10/ 16 1018.5
225 S CAPE HAT   1450   75 77  240/  6/  8 1020.2    3/ 9   3/ 9
41 SE CHARLESTON 1450   77 77  190/ 10/ 14 1018.5    4/10   3/10

$$




USA.gov is the U.S. government's official web portal to all federal, state and local government web resources and services.